BAW887 ENBR-EGCC

Flight info

Callsign BAW887
Flight time N/A
Altitude 36000
Route EPOTU DCT KLONN DCT TILNI
Aircraft A320/M-SDE3FGHIRWY/LB1

Departure

Time 2026-05-07 16:25
Airport Bergen Airport, Flesland (ENBR)

Arrival

Time N/A
Airport Manchester Airport (EGCC)
Time Latitude Longitude Altitude Speed Heading
2026-05-07 16:13 60.28599 5.22614 165 ft 0 kts 81°
2026-05-07 16:14 60.28599 5.22608 165 ft 2 kts 81°
2026-05-07 16:15 60.28595 5.22573 165 ft 3 kts 67°
2026-05-07 16:15 60.28586 5.22539 165 ft 3 kts 40°
2026-05-07 16:15 60.28570 5.22522 165 ft 3 kts
2026-05-07 16:15 60.28563 5.22522 165 ft 0 kts 351°
2026-05-07 16:18 60.28567 5.22521 165 ft 2 kts 350°
2026-05-07 16:18 60.28585 5.22515 165 ft 4 kts 350°
2026-05-07 16:18 60.28614 5.22504 165 ft 5 kts 349°
2026-05-07 16:19 60.28654 5.22489 165 ft 6 kts 350°
2026-05-07 16:19 60.28703 5.22472 165 ft 8 kts 350°
2026-05-07 16:19 60.28766 5.22452 166 ft 10 kts 353°
2026-05-07 16:19 60.28837 5.22429 167 ft 11 kts 350°
2026-05-07 16:20 60.28919 5.22401 166 ft 13 kts 351°
2026-05-07 16:20 60.29021 5.22368 166 ft 16 kts 351°
2026-05-07 16:20 60.29115 5.22223 163 ft 19 kts 335°
2026-05-07 16:20 60.29255 5.22167 163 ft 22 kts 350°
2026-05-07 16:21 60.29418 5.22112 157 ft 26 kts 352°
2026-05-07 16:21 60.29612 5.22051 149 ft 31 kts 351°
2026-05-07 16:21 60.29829 5.21975 150 ft 32 kts 349°
2026-05-07 16:21 60.30043 5.21904 159 ft 30 kts 351°
2026-05-07 16:22 60.30245 5.21834 165 ft 30 kts 352°
2026-05-07 16:22 60.30441 5.21768 173 ft 28 kts 350°
2026-05-07 16:22 60.30615 5.21708 180 ft 14 kts 347°
2026-05-07 16:22 60.30660 5.21574 182 ft 13 kts 265°
2026-05-07 16:23 60.30627 5.21412 195 ft 13 kts 214°
2026-05-07 16:23 60.30541 5.21415 178 ft 0 kts 169°
2026-05-07 16:24 60.30490 5.21433 174 ft 35 kts 171°
2026-05-07 16:24 60.30011 5.21594 162 ft 101 kts 171°
2026-05-07 16:24 60.29144 5.21884 163 ft 148 kts 171°
2026-05-07 16:24 60.28047 5.22257 461 ft 167 kts 171°
2026-05-07 16:25 60.26867 5.22697 1001 ft 177 kts 171°
2026-05-07 16:25 60.25655 5.23118 1636 ft 180 kts 171°
2026-05-07 16:25 60.24347 5.23542 1898 ft 202 kts 171°
2026-05-07 16:25 60.22894 5.24006 2198 ft 222 kts 170°
2026-05-07 16:26 60.21338 5.24508 2855 ft 229 kts 170°
2026-05-07 16:26 60.19760 5.25014 3648 ft 230 kts 172°
2026-05-07 16:26 60.18136 5.24828 4244 ft 246 kts 198°
2026-05-07 16:26 60.17122 5.23747 4717 ft 254 kts 217°
2026-05-07 16:27 60.15780 5.19793 5886 ft 262 kts 242°
2026-05-07 16:27 60.14985 5.16495 6792 ft 264 kts 241°
2026-05-07 16:27 60.14179 5.13183 7681 ft 264 kts 241°
2026-05-07 16:27 60.13368 5.09858 8562 ft 266 kts 242°
2026-05-07 16:28 60.12551 5.06524 9447 ft 267 kts 241°
2026-05-07 16:28 60.11725 5.03172 10291 ft 269 kts 242°
2026-05-07 16:28 60.10873 4.99723 10673 ft 287 kts 242°
2026-05-07 16:28 60.09951 4.96008 10899 ft 307 kts 242°
2026-05-07 16:29 60.08988 4.92127 11450 ft 314 kts 242°
2026-05-07 16:29 60.08014 4.88202 12148 ft 316 kts 243°
2026-05-07 16:29 60.07033 4.84245 12884 ft 318 kts 243°
2026-05-07 16:29 60.06048 4.80274 13589 ft 319 kts 244°
2026-05-07 16:30 60.05058 4.76283 14251 ft 321 kts 244°
2026-05-07 16:30 60.04057 4.72259 14844 ft 324 kts 244°
2026-05-07 16:30 60.03047 4.68211 15420 ft 327 kts 244°
2026-05-07 16:30 60.02025 4.64128 15993 ft 330 kts 244°
2026-05-07 16:31 60.00994 4.60016 16561 ft 333 kts 244°
2026-05-07 16:31 59.99951 4.55863 17146 ft 336 kts 244°
2026-05-07 16:31 59.98898 4.51686 17704 ft 339 kts 244°
2026-05-07 16:31 59.97832 4.47468 18268 ft 342 kts 244°
2026-05-07 16:32 59.96756 4.43219 18775 ft 344 kts 244°
2026-05-07 16:32 59.95671 4.38942 19318 ft 346 kts 244°
2026-05-07 16:32 59.94582 4.34642 19861 ft 348 kts 244°
2026-05-07 16:32 59.93489 4.30327 20409 ft 349 kts 245°
2026-05-07 16:33 59.92402 4.26058 20938 ft 351 kts 245°
2026-05-07 16:33 59.91289 4.21712 21449 ft 353 kts 245°
2026-05-07 16:33 59.90172 4.17352 21943 ft 354 kts 245°
2026-05-07 16:33 59.89004 4.13008 22430 ft 357 kts 240°
2026-05-07 16:34 59.87455 4.09099 22900 ft 364 kts 229°
2026-05-07 16:34 59.85484 4.05864 23367 ft 372 kts 218°
2026-05-07 16:34 59.83156 4.03462 23790 ft 381 kts 210°
2026-05-07 16:34 59.80722 4.01348 24139 ft 383 kts 209°
2026-05-07 16:35 59.78275 3.99220 24524 ft 385 kts 210°
2026-05-07 16:35 59.75820 3.97079 24908 ft 387 kts 210°
2026-05-07 16:35 59.73352 3.94928 25289 ft 388 kts 210°
2026-05-07 16:35 59.70871 3.92768 25669 ft 390 kts 210°
2026-05-07 16:36 59.68382 3.90605 26085 ft 391 kts 210°
2026-05-07 16:36 59.65888 3.88444 26475 ft 392 kts 210°
2026-05-07 16:36 59.63386 3.86280 26839 ft 394 kts 210°
2026-05-07 16:36 59.60869 3.84107 27199 ft 396 kts 210°
2026-05-07 16:37 59.58342 3.81925 27558 ft 398 kts 210°
2026-05-07 16:37 59.55799 3.79733 27912 ft 400 kts 210°
2026-05-07 16:37 59.53243 3.77538 28230 ft 402 kts 209°
2026-05-07 16:37 59.50673 3.75331 28568 ft 404 kts 209°
2026-05-07 16:38 59.48084 3.73110 28913 ft 406 kts 209°
2026-05-07 16:38 59.45487 3.70886 29258 ft 408 kts 209°
2026-05-07 16:38 59.42874 3.68652 29609 ft 410 kts 210°
2026-05-07 16:38 59.40263 3.66425 30105 ft 408 kts 210°
2026-05-07 16:39 59.37664 3.64216 30539 ft 407 kts 210°
2026-05-07 16:39 59.35068 3.62019 30958 ft 406 kts 209°
2026-05-07 16:39 59.32482 3.59835 31373 ft 404 kts 209°
2026-05-07 16:39 59.29900 3.57655 31792 ft 403 kts 209°
2026-05-07 16:40 59.27328 3.55483 32221 ft 402 kts 209°
2026-05-07 16:40 59.24761 3.53318 32581 ft 402 kts 209°
2026-05-07 16:40 59.22195 3.51153 32978 ft 401 kts 209°
2026-05-07 16:40 59.20500 3.49723 33249 ft 401 kts 209°
2026-05-07 16:41 59.17943 3.47570 33668 ft 400 kts 209°
2026-05-07 16:41 59.15390 3.45430 34081 ft 399 kts 209°
2026-05-07 16:41 59.12842 3.43295 34412 ft 399 kts 208°
2026-05-07 16:41 59.10293 3.41157 34708 ft 399 kts 208°
2026-05-07 16:42 59.07748 3.39022 34988 ft 399 kts 208°
2026-05-07 16:42 59.05195 3.36889 35266 ft 399 kts 208°
2026-05-07 16:42 59.02641 3.34764 35536 ft 400 kts 208°
2026-05-07 16:42 59.00085 3.32638 35800 ft 400 kts 208°
2026-05-07 16:43 58.97527 3.30514 36008 ft 401 kts 207°
2026-05-07 16:43 58.92349 3.26228 36096 ft 410 kts 207°
2026-05-07 16:44 58.87070 3.21876 36099 ft 413 kts 207°
2026-05-07 16:44 58.81777 3.17526 36098 ft 414 kts 207°
2026-05-07 16:45 58.76482 3.13190 36080 ft 412 kts 207°
2026-05-07 16:45 58.71214 3.08889 36097 ft 411 kts 207°
2026-05-07 16:46 58.65948 3.04604 36101 ft 411 kts 207°
2026-05-07 16:46 58.60680 3.00339 36090 ft 411 kts 207°
2026-05-07 16:47 58.55450 2.96100 36093 ft 411 kts 207°
2026-05-07 16:47 58.50177 2.91846 36095 ft 411 kts 207°
2026-05-07 16:48 58.44898 2.87620 36095 ft 411 kts 207°
2026-05-07 16:48 58.39647 2.83311 36070 ft 409 kts 211°
2026-05-07 16:49 58.34961 2.77293 36080 ft 406 kts 219°
2026-05-07 16:49 58.30383 2.70978 36084 ft 407 kts 219°
2026-05-07 16:50 58.25791 2.64693 36084 ft 407 kts 218°
2026-05-07 16:50 58.21194 2.58417 36093 ft 407 kts 218°
2026-05-07 16:51 58.16597 2.52155 36074 ft 407 kts 218°
2026-05-07 16:51 58.11995 2.45894 36078 ft 408 kts 218°
2026-05-07 16:52 58.07380 2.39643 36088 ft 408 kts 218°
2026-05-07 16:52 58.02761 2.33423 36094 ft 408 kts 218°
2026-05-07 16:53 57.98139 2.27222 36101 ft 408 kts 218°
2026-05-07 16:53 57.93520 2.21019 36097 ft 408 kts 218°
2026-05-07 16:54 57.88902 2.14820 36065 ft 408 kts 217°
2026-05-07 16:54 57.84265 2.08653 36066 ft 409 kts 217°
2026-05-07 16:55 57.79618 2.02482 36069 ft 409 kts 217°
2026-05-07 16:55 57.74998 1.96363 36074 ft 410 kts 217°
2026-05-07 16:56 57.70335 1.90230 36073 ft 410 kts 217°
2026-05-07 16:56 57.63346 1.81042 36056 ft 410 kts 217°
2026-05-07 16:57 57.58682 1.74936 36071 ft 410 kts 216°
2026-05-07 16:57 57.54011 1.68833 36072 ft 410 kts 216°
2026-05-07 16:58 57.49332 1.62749 36067 ft 410 kts 216°
2026-05-07 16:58 57.44648 1.56678 36071 ft 411 kts 216°
2026-05-07 16:59 57.39962 1.50614 36072 ft 411 kts 216°
2026-05-07 16:59 57.35271 1.44565 36055 ft 411 kts 216°
2026-05-07 17:00 57.30570 1.38524 36044 ft 412 kts 216°
2026-05-07 17:00 57.25859 1.32494 36051 ft 412 kts 216°
2026-05-07 17:01 57.21139 1.26468 36057 ft 413 kts 216°
2026-05-07 17:01 57.16402 1.20455 36061 ft 413 kts 216°
2026-05-07 17:02 57.11669 1.14462 36075 ft 413 kts 215°
2026-05-07 17:02 57.06937 1.08480 36047 ft 413 kts 215°
2026-05-07 17:03 57.02192 1.02497 36050 ft 414 kts 215°
2026-05-07 17:03 56.97436 0.96520 36055 ft 415 kts 215°
2026-05-07 17:04 56.92670 0.90564 36055 ft 415 kts 215°
2026-05-07 17:04 56.87898 0.84612 36060 ft 415 kts 215°
2026-05-07 17:05 56.83124 0.78666 36044 ft 415 kts 214°
2026-05-07 17:05 56.78339 0.72720 36047 ft 417 kts 214°
2026-05-07 17:06 56.73541 0.66780 36043 ft 417 kts 214°
2026-05-07 17:06 56.68730 0.60859 36051 ft 418 kts 214°
2026-05-07 17:07 56.63943 0.54983 36065 ft 418 kts 214°
2026-05-07 17:07 56.59131 0.49086 36073 ft 417 kts 214°
2026-05-07 17:08 56.54326 0.43209 36047 ft 417 kts 214°
2026-05-07 17:08 56.49516 0.37350 36043 ft 417 kts 214°
2026-05-07 17:09 56.44698 0.31505 36046 ft 417 kts 214°
2026-05-07 17:09 56.39872 0.25669 36050 ft 417 kts 214°
2026-05-07 17:10 56.35039 0.19857 36043 ft 417 kts 214°
2026-05-07 17:10 56.30208 0.14051 36053 ft 418 kts 213°
2026-05-07 17:11 56.25371 0.08235 36045 ft 418 kts 213°
2026-05-07 17:11 56.20526 0.02439 36045 ft 419 kts 213°
2026-05-07 17:12 56.15669 -0.03343 36050 ft 419 kts 213°
2026-05-07 17:12 56.10815 -0.09102 36047 ft 418 kts 213°
2026-05-07 17:13 56.05958 -0.14846 36045 ft 418 kts 213°
2026-05-07 17:13 56.01105 -0.20577 36049 ft 418 kts 213°
2026-05-07 17:14 55.96252 -0.26297 36046 ft 418 kts 213°
2026-05-07 17:14 55.91395 -0.31983 36042 ft 418 kts 213°
2026-05-07 17:15 55.86535 -0.37656 36046 ft 418 kts 213°
2026-05-07 17:15 55.81674 -0.43321 36044 ft 418 kts 213°
2026-05-07 17:16 55.76814 -0.48974 36021 ft 418 kts 212°
2026-05-07 17:16 55.71947 -0.54614 36029 ft 418 kts 212°
2026-05-07 17:17 55.67079 -0.60245 36024 ft 418 kts 212°
2026-05-07 17:17 55.62202 -0.65872 36037 ft 418 kts 212°
2026-05-07 17:18 55.57322 -0.71476 36026 ft 418 kts 212°
2026-05-07 17:18 55.52446 -0.77064 36024 ft 418 kts 212°
2026-05-07 17:19 55.47565 -0.82637 36021 ft 418 kts 212°
2026-05-07 17:19 55.42679 -0.88198 36024 ft 418 kts 212°
2026-05-07 17:20 55.37788 -0.93752 36007 ft 419 kts 212°
2026-05-07 17:20 55.32919 -0.99250 36019 ft 419 kts 212°
2026-05-07 17:21 55.28013 -1.04773 36021 ft 419 kts 211°
2026-05-07 17:21 55.23103 -1.10293 36014 ft 419 kts 211°
2026-05-07 17:22 55.18175 -1.15826 35665 ft 422 kts 211°
2026-05-07 17:22 55.15704 -1.18594 35413 ft 422 kts 211°
2026-05-07 17:22 55.13236 -1.21353 35162 ft 421 kts 211°
2026-05-07 17:23 55.10764 -1.24111 34922 ft 421 kts 211°
2026-05-07 17:23 55.08294 -1.26862 34680 ft 421 kts 210°
2026-05-07 17:23 55.05828 -1.29603 34440 ft 420 kts 210°
2026-05-07 17:23 55.03371 -1.32331 34201 ft 418 kts 210°
2026-05-07 17:24 55.00926 -1.35040 33889 ft 414 kts 210°
2026-05-07 17:24 54.98511 -1.37712 33394 ft 410 kts 210°
2026-05-07 17:24 54.96117 -1.40360 32935 ft 405 kts 210°
2026-05-07 17:24 54.93748 -1.42980 32479 ft 402 kts 210°
2026-05-07 17:25 54.91401 -1.45574 32032 ft 398 kts 210°
2026-05-07 17:25 54.89076 -1.48138 31542 ft 395 kts 210°
2026-05-07 17:25 54.86764 -1.50677 31098 ft 391 kts 210°
2026-05-07 17:25 54.84473 -1.53192 30642 ft 389 kts 210°
2026-05-07 17:26 54.82193 -1.55693 30144 ft 387 kts 211°
2026-05-07 17:26 54.79929 -1.58174 29692 ft 383 kts 211°
2026-05-07 17:26 54.77694 -1.60623 29264 ft 378 kts 211°
2026-05-07 17:26 54.75480 -1.63043 28840 ft 374 kts 210°
2026-05-07 17:27 54.73285 -1.65436 28403 ft 371 kts 210°
2026-05-07 17:27 54.71843 -1.67005 28133 ft 368 kts 210°
2026-05-07 17:27 54.69681 -1.69349 27727 ft 365 kts 210°
2026-05-07 17:27 54.67539 -1.71673 27327 ft 362 kts 210°
2026-05-07 17:28 54.65412 -1.73980 26934 ft 359 kts 210°
2026-05-07 17:28 54.63304 -1.76263 26561 ft 356 kts 210°
2026-05-07 17:28 54.61215 -1.78526 26192 ft 353 kts 211°
2026-05-07 17:28 54.59145 -1.80768 25807 ft 350 kts 211°
2026-05-07 17:29 54.57092 -1.82990 25434 ft 347 kts 211°
2026-05-07 17:29 54.55057 -1.85187 25069 ft 344 kts 211°
2026-05-07 17:29 54.52967 -1.87169 24578 ft 346 kts 200°
2026-05-07 17:29 54.50612 -1.88159 24039 ft 351 kts 187°
2026-05-07 17:30 54.48166 -1.88410 23497 ft 354 kts 181°
2026-05-07 17:30 54.45700 -1.88305 22912 ft 354 kts 179°
2026-05-07 17:30 54.43241 -1.88122 22382 ft 353 kts 179°
2026-05-07 17:30 54.40786 -1.88000 21846 ft 353 kts 180°
2026-05-07 17:31 54.38336 -1.87979 21312 ft 352 kts 181°
2026-05-07 17:31 54.35890 -1.88049 20780 ft 351 kts 182°
2026-05-07 17:31 54.33456 -1.88181 20239 ft 350 kts 183°
2026-05-07 17:31 54.31027 -1.88342 19717 ft 349 kts 183°
2026-05-07 17:32 54.28603 -1.88504 19188 ft 349 kts 183°
2026-05-07 17:32 54.26182 -1.88662 18665 ft 348 kts 183°
2026-05-07 17:32 54.23763 -1.88813 18110 ft 347 kts 183°
2026-05-07 17:32 54.21352 -1.88960 17555 ft 346 kts 183°
2026-05-07 17:33 54.18959 -1.89101 17035 ft 343 kts 183°
2026-05-07 17:33 54.16576 -1.89238 16518 ft 342 kts 183°
2026-05-07 17:33 54.14209 -1.89371 16003 ft 339 kts 183°
2026-05-07 17:33 54.11865 -1.89501 15541 ft 335 kts 183°
2026-05-07 17:34 54.09539 -1.89634 15091 ft 332 kts 183°
2026-05-07 17:34 54.07227 -1.89769 14588 ft 331 kts 183°
2026-05-07 17:34 54.04961 -1.89899 14038 ft 322 kts 183°
2026-05-07 17:34 54.02758 -1.90028 13473 ft 311 kts 183°
2026-05-07 17:35 54.00634 -1.90153 12999 ft 301 kts 184°
2026-05-07 17:35 53.98560 -1.90272 12570 ft 294 kts 184°
2026-05-07 17:35 53.96590 -1.90380 12385 ft 274 kts 184°
2026-05-07 17:35 53.94714 -1.90482 11950 ft 266 kts 184°
2026-05-07 17:36 53.92873 -1.90585 11413 ft 264 kts 184°
2026-05-07 17:36 53.91047 -1.90689 10937 ft 262 kts 184°
2026-05-07 17:36 53.89229 -1.90792 10524 ft 261 kts 184°
2026-05-07 17:36 53.87420 -1.90895 10126 ft 260 kts 184°
2026-05-07 17:37 53.85603 -1.90998 9713 ft 263 kts 184°
2026-05-07 17:37 53.83769 -1.91099 9293 ft 264 kts 184°
2026-05-07 17:37 53.81930 -1.91199 8886 ft 265 kts 184°
2026-05-07 17:37 53.80080 -1.91303 8482 ft 266 kts 184°
2026-05-07 17:38 53.78223 -1.91408 8076 ft 268 kts 184°
2026-05-07 17:38 53.76353 -1.91518 7663 ft 269 kts 184°
2026-05-07 17:38 53.74475 -1.91626 7259 ft 271 kts 183°
2026-05-07 17:38 53.72584 -1.91736 6851 ft 273 kts 183°
2026-05-07 17:39 53.70706 -1.91843 6437 ft 275 kts 183°
2026-05-07 17:39 53.68791 -1.91953 5997 ft 276 kts 183°
2026-05-07 17:39 53.66887 -1.92060 5551 ft 269 kts 183°
2026-05-07 17:39 53.65050 -1.92161 5155 ft 259 kts 182°
2026-05-07 17:40 53.63287 -1.92258 4756 ft 249 kts 182°
2026-05-07 17:40 53.61589 -1.92351 4393 ft 240 kts 182°
2026-05-07 17:40 53.59954 -1.92438 4267 ft 222 kts 182°
2026-05-07 17:40 53.58483 -1.92515 4210 ft 209 kts 182°
2026-05-07 17:41 53.57069 -1.92592 4126 ft 198 kts 182°
2026-05-07 17:41 53.55720 -1.92667 4048 ft 191 kts 182°
2026-05-07 17:41 53.54394 -1.92741 3969 ft 189 kts 181°
2026-05-07 17:41 53.53087 -1.92856 3888 ft 188 kts 190°
2026-05-07 17:42 53.51868 -1.93606 3831 ft 188 kts 210°
2026-05-07 17:42 53.50905 -1.95103 3732 ft 191 kts 228°
2026-05-07 17:42 53.50075 -1.96847 3645 ft 191 kts 229°
2026-05-07 17:42 53.49251 -1.98581 3555 ft 190 kts 228°
2026-05-07 17:43 53.48426 -2.00309 3489 ft 189 kts 228°
2026-05-07 17:43 53.47614 -2.02010 3498 ft 184 kts 228°
2026-05-07 17:43 53.46816 -2.03680 3492 ft 183 kts 228°
2026-05-07 17:43 53.46027 -2.05329 3358 ft 180 kts 228°
2026-05-07 17:44 53.45244 -2.06966 3169 ft 179 kts 227°
2026-05-07 17:44 53.44473 -2.08576 2926 ft 174 kts 228°
2026-05-07 17:44 53.43723 -2.10140 2705 ft 170 kts 228°
2026-05-07 17:44 53.42991 -2.11667 2480 ft 166 kts 227°
2026-05-07 17:45 53.42271 -2.13166 2254 ft 163 kts 227°
2026-05-07 17:45 53.41576 -2.14616 2036 ft 155 kts 227°
2026-05-07 17:45 53.40933 -2.15956 1842 ft 141 kts 226°
2026-05-07 17:45 53.40329 -2.17211 1658 ft 136 kts 226°
2026-05-07 17:46 53.39741 -2.18433 1466 ft 134 kts 226°
2026-05-07 17:46 53.39158 -2.19643 1291 ft 133 kts 226°
2026-05-07 17:46 53.38577 -2.20850 1092 ft 134 kts 226°